Showing default

IRIDIUM 157, 43251

Orbit data source: Space-Track

IRIDIUM 157, 43251 is a payload satellite owned by Iridium (US) in LEO that was launched on Fri, 30 Mar 2018 UTC via an FALCON 9 launch vehicle from the Air Force Western Test Range (AFWTR). Payloads include a variety of satellites, spacecraft, and rockets equipped with specific instruments for various scientific and technological missions. These include communications satellites like Starlink; space stations such as the ISS; scientific satellites like the Hubble; Earth observation satellites from companies like Planet Labs, Umbra, and HawkEye 360; GPS; miniature CubeSats for education and research; and military/defense satellites.

Loading next visibility...
IRIDIUM 157 details
Identifier
43251, 2018-030C
Orbit
LEO
Last TLE update14 hours ago
Origin
Flag of USIridium (US)
ManufacturerOATK SSG Gilbert
MissionOperational Commercial Communications
Bus & MotorELITEBUS, Unknown motor
Mass860 kg wet, 700 kg dry
Launch date (UTC)
2018-03-30 (7 years ago)
Launch vehicle
FALCON 9
Launch site
Air Force Western Test Range (AFWTR)
Object type
Payload
Rocket body
Debris
Shape & HBRTrap Box + 2 Pan, 9.4 m
Radar Cross Section14.423 m², Large (>1 m²)

Expand to show TLE details & history

TLE from 14 hours ago
0 IRIDIUM 157
1 43251U 18030C   24360.99183544  .00000437  00000-0  14888-3 0  9991
2 43251  86.3990 155.4051 0002204  93.2475 266.8973 14.34214211352993
Epoch: 2024-12-25T23:48Z
Definitive object data (Epoch: 2024-12-25T23:48:14.582Z)
Latitude0.00001°
Longitude63.36671°
Altitude780.816 km
Speed7.463 km/s
True Right ascension10h 21m 37s
True Declination0° 00' 00"
Sunlit
Object was in partial shadow at TLE epoch
Visualization TLE readout
Latitude53.05327°
Longitude67.90355°
Altitude785.191 km
Speed7.467 km/s
Apparent Right ascension04h 54m 26s
Apparent Declination31° 57' 50"
Sunlit
Object is in full shadow
Visualization observer readout
Local Sidereal Time12:48:26
Azimuth311.764° NW
Elevation1.674°
Doppler factor1
Orbital elements
Apogee altitude776.22 km
Perigee altitude773.067 km
Semi-major axis7,152.78 km
Eccentricity0.0002204
Inclination86.399°
RAAN155.4051°
Arg. of periapsis93.2475°
True anomaly266.87208°
Mean anomaly266.8973°
Eccentric anomaly266.88469°
Mean motion3.58782 °/min
BSTAR0.00014888
Orbital period100.34 mins
Loading maneuver chart data...
Loading historical data...
Loading historical data...
Loading historical data...
Loading historical data...
Loading historical data...
Loading historical data...
Loading historical data...

IRIDIUM 157 Visibility forecast

Observer location: undefined°, undefined

Span
Click to sort rows by Start time (UTC) header in descending order
Start Az.
Max El. time (UTC)
Max El. Az.
Max El.
End time (UTC)
End Az.
9 mins2024-12-26 22:08:45.740Z12.816° NNE2024-12-26 22:12:45.740Z68.377° E34.487°2024-12-26 22:17:45.740Z154.031° SSE
5 mins2024-12-26 23:51:45.740Z305.508° NW2024-12-26 23:53:45.740Z276.179° WNW18.609°2024-12-26 23:56:45.740Z238.148° WSW
8 mins2024-12-27 11:05:45.740Z184.477° SSW2024-12-27 11:08:45.740Z204.335° SW44.046°2024-12-27 11:13:45.740Z0.855° NNE
|